﻿_id,日時,平均風速(m/s),平均風向,最大瞬間風速(m/s),最大風速時風向,気温(℃),湿度(%),10分間移動積算雨量(mm),1時間移動積算雨量(mm),日雨量(mm),累計雨量(mm)
1,2021-08-16T00:00:00,0.7,南東,1.5,東,21.7,95.3,0,0,34,183.5
2,2021-08-16T00:01:00,0.8,東南東,1.6,東,21.7,95.3,0,0,0,183.5
3,2021-08-16T00:02:00,0.8,東南東,1.8,東北東,21.7,95.4,0,0,0,183.5
4,2021-08-16T00:03:00,0.9,東南東,1.9,東南東,21.8,95.4,0,0,0,183.5
5,2021-08-16T00:04:00,1,東南東,2.2,東,21.8,95.4,0,0,0,183.5
6,2021-08-16T00:05:00,1.1,東南東,2.2,東,21.8,95.4,0,0,0,183.5
7,2021-08-16T00:06:00,1.4,東,2.9,東,21.7,95.4,0,0,0,183.5
8,2021-08-16T00:07:00,1.5,東,3,東,21.7,95.3,0,0,0,183.5
9,2021-08-16T00:08:00,1.7,東,3,東,21.6,95.3,0,0,0,183.5
10,2021-08-16T00:09:00,1.8,東,3,東,21.6,95.4,0,0,0,183.5
11,2021-08-16T00:10:00,1.9,東,3.2,東南東,21.6,95.4,0,0,0,183.5
12,2021-08-16T00:11:00,2,東,3.2,東南東,21.6,95.6,0,0,0,183.5
13,2021-08-16T00:12:00,2,東,3.2,東南東,21.6,95.6,0,0,0,183.5
14,2021-08-16T00:13:00,2.1,東,3.2,東南東,21.5,95.6,0,0,0,183.5
15,2021-08-16T00:14:00,2,東,3.2,東南東,21.5,95.7,0,0,0,183.5
16,2021-08-16T00:15:00,2,東,3.2,東南東,21.5,95.7,0,0,0,183.5
17,2021-08-16T00:16:00,2,東,3.2,東南東,21.4,95.7,0,0,0,183.5
18,2021-08-16T00:17:00,1.8,東,3.2,東南東,21.5,95.8,0,0,0,183.5
19,2021-08-16T00:18:00,1.7,東,3.2,東南東,21.5,95.9,0,0,0,183.5
20,2021-08-16T00:19:00,1.6,東,3.2,東南東,21.5,95.9,0,0,0,183.5
21,2021-08-16T00:20:00,1.5,東,3,東,21.4,95.9,0,0,0,183.5
22,2021-08-16T00:21:00,1.4,東,2.6,東南東,21.4,96,0,0,0,183.5
23,2021-08-16T00:22:00,1.3,東,2.6,東南東,21.4,96,0,0,0,183.5
24,2021-08-16T00:23:00,1.3,東,2.4,東,21.4,96,0,0,0,183.5
25,2021-08-16T00:24:00,1.2,東,2,東,21.6,96.2,0,0,0,183.5
26,2021-08-16T00:25:00,1.3,東,2,東,21.5,96,0,0,0,183.5
27,2021-08-16T00:26:00,1.3,東,2,東南東,21.4,96,0,0,0,183.5
28,2021-08-16T00:27:00,1.3,東南東,2,東南東,21.4,96.1,0,0,0,183.5
29,2021-08-16T00:28:00,1.3,東南東,2,東南東,21.4,96.1,0,0,0,183.5
30,2021-08-16T00:29:00,1.2,東南東,2,東南東,21.5,96.2,0,0,0,183.5
31,2021-08-16T00:30:00,1.2,東南東,2,東南東,21.5,96.2,0,0,0,183.5
32,2021-08-16T00:31:00,1.2,南東,2,東南東,21.5,96.2,0,0,0,183.5
33,2021-08-16T00:32:00,1.1,南東,2,東南東,21.6,96.3,0,0,0,183.5
34,2021-08-16T00:33:00,1,南東,2,東南東,21.6,96.1,0,0,0,183.5
35,2021-08-16T00:34:00,0.9,南東,2,東南東,21.5,96.1,0,0,0,183.5
36,2021-08-16T00:35:00,0.8,南東,1.9,南東,21.5,96,0,0,0,183.5
37,2021-08-16T00:36:00,0.7,南東,1.8,南東,21.5,96.1,0,0,0,183.5
38,2021-08-16T00:37:00,0.6,南東,1.8,南東,21.5,96,0,0,0,183.5
39,2021-08-16T00:38:00,0.6,南東,1.7,南南東,21.5,96.1,0,0,0,183.5
40,2021-08-16T00:39:00,0.5,南東,1.7,南南東,21.6,96.2,0,0,0,183.5
41,2021-08-16T00:40:00,0.5,南東,1.7,南南東,21.5,96.1,0,0,0,183.5
42,2021-08-16T00:41:00,0.4,南東,1.2,南南東,21.5,96,0,0,0,183.5
43,2021-08-16T00:42:00,0.4,南東,1.2,南南東,21.5,96,0,0,0,183.5
44,2021-08-16T00:43:00,0.3,南東,1.2,南南東,21.5,96,0,0,0,183.5
45,2021-08-16T00:44:00,0.3,東南東,1.1,南南東,21.4,96,0,0,0,183.5
46,2021-08-16T00:45:00,0.3,東南東,1,南東,21.3,95.9,0,0,0,183.5
47,2021-08-16T00:46:00,0.3,東,0.9,北,21.3,95.9,0,0,0,183.5
48,2021-08-16T00:47:00,0.4,東北東,0.9,北,21.3,96,0,0,0,183.5
49,2021-08-16T00:48:00,0.4,東北東,1.1,北東,21.3,96,0,0,0,183.5
50,2021-08-16T00:49:00,0.5,北東,1.2,北東,21.2,96.1,0,0,0,183.5
51,2021-08-16T00:50:00,0.5,北東,1.3,北東,21.3,96.1,0,0,0,183.5
52,2021-08-16T00:51:00,0.6,北東,1.3,北東,21.3,96.2,0,0,0,183.5
53,2021-08-16T00:52:00,0.6,北東,1.3,北東,21.4,96.3,0,0,0,183.5
54,2021-08-16T00:53:00,0.6,北東,1.3,北東,21.4,96.3,0,0,0,183.5
55,2021-08-16T00:54:00,0.6,北東,1.3,北東,21.4,96.3,0,0,0,183.5
56,2021-08-16T00:55:00,0.5,北東,1.3,北東,21.6,96.5,0,0,0,183.5
57,2021-08-16T00:56:00,0.5,北東,1.3,北東,21.8,96.7,0,0,0,183.5
58,2021-08-16T00:57:00,0.4,東北東,1.3,北東,21.6,96.3,0,0,0,183.5
59,2021-08-16T00:58:00,0.4,東北東,1.3,北東,21.5,96.1,0,0,0,183.5
60,2021-08-16T00:59:00,0.3,東北東,1.3,北東,21.5,96.1,0,0,0,183.5
61,2021-08-16T01:00:00,0.3,東,1.2,東南東,21.4,96.1,0,0,0,183.5
62,2021-08-16T01:01:00,0.3,東,1.4,東,21.4,96,0,0,0,183.5
63,2021-08-16T01:02:00,0.4,東,1.4,東,21.4,96,0,0,0,183.5
64,2021-08-16T01:03:00,0.4,東,1.4,東,21.8,96.5,0,0,0,183.5
65,2021-08-16T01:04:00,0.5,東南東,1.4,東,21.6,96.2,0,0,0,183.5
66,2021-08-16T01:05:00,0.6,東南東,1.4,東,21.5,95.9,0,0,0,183.5
67,2021-08-16T01:06:00,0.7,東南東,1.6,東南東,21.5,95.9,0,0,0,183.5
68,2021-08-16T01:07:00,0.8,南東,1.6,東南東,21.5,95.9,0,0,0,183.5
69,2021-08-16T01:08:00,0.9,東南東,1.6,東南東,21.5,95.9,0,0,0,183.5
70,2021-08-16T01:09:00,0.9,東南東,1.6,東南東,21.5,96,0,0,0,183.5
71,2021-08-16T01:10:00,0.9,東南東,1.6,東南東,21.4,95.9,0,0,0,183.5
72,2021-08-16T01:11:00,0.8,東南東,1.6,東南東,21.4,95.9,0,0,0,183.5
73,2021-08-16T01:12:00,0.7,東南東,1.6,東南東,21.3,95.8,0,0,0,183.5
74,2021-08-16T01:13:00,0.8,東南東,1.6,東南東,21.3,95.8,0,0,0,183.5
75,2021-08-16T01:14:00,0.8,東,1.6,東南東,21.3,95.9,0,0,0,183.5
76,2021-08-16T01:15:00,0.8,東,1.6,東南東,21.3,95.9,0,0,0,183.5
77,2021-08-16T01:16:00,0.7,東,1.4,東北東,21.4,96.1,0,0,0,183.5
78,2021-08-16T01:17:00,0.6,東,1.4,東北東,21.4,96.1,0,0,0,183.5
79,2021-08-16T01:18:00,0.6,東北東,1.4,東北東,21.3,96,0,0,0,183.5
80,2021-08-16T01:19:00,0.7,東北東,1.4,東北東,21.3,96,0,0,0,183.5
81,2021-08-16T01:20:00,0.8,北東,1.4,東北東,21.2,96,0,0,0,183.5
82,2021-08-16T01:21:00,0.8,北東,1.4,東北東,21.3,96.1,0,0,0,183.5
83,2021-08-16T01:22:00,0.8,北東,1.4,東北東,21.3,96.1,0,0,0,183.5
84,2021-08-16T01:23:00,0.8,東北東,1.4,東北東,21.4,96.2,0,0,0,183.5
85,2021-08-16T01:24:00,0.7,東北東,1.4,東北東,21.4,96.1,0,0,0,183.5
86,2021-08-16T01:25:00,0.7,東北東,1.2,東北東,21.3,96.1,0,0,0,183.5
87,2021-08-16T01:26:00,0.7,北北東,1.2,東北東,21.3,96.1,0,0,0,183.5
88,2021-08-16T01:27:00,0.7,北北西,1.2,東北東,21.3,96.1,0,0,0,183.5
89,2021-08-16T01:28:00,0.7,北西,1.2,東北東,21.2,96.1,0,0,0,183.5
90,2021-08-16T01:29:00,0.6,北西,1.2,東北東,21.2,96.1,0,0,0,183.5
91,2021-08-16T01:30:00,0.6,西,1.2,東北東,21.2,96.1,0,0,0,183.5
92,2021-08-16T01:31:00,0.6,西南西,1.1,東,21.4,96.4,0,0,0,183.5
93,2021-08-16T01:32:00,0.6,西,1.1,東北東,21.3,96.3,0,0,0,183.5
94,2021-08-16T01:33:00,0.6,西北西,1.1,東北東,21.2,96,0,0,0,183.5
95,2021-08-16T01:34:00,0.6,西北西,1.1,東北東,21.2,96.1,0,0,0,183.5
96,2021-08-16T01:35:00,0.6,北北西,1.1,東北東,21.2,96.1,0,0,0,183.5
97,2021-08-16T01:36:00,0.6,北北東,1.2,東北東,21.2,96.1,0,0,0,183.5
98,2021-08-16T01:37:00,0.7,東北東,1.4,東,21.2,96.2,0,0,0,183.5
99,2021-08-16T01:38:00,0.7,東北東,1.4,東,21.2,96.2,0,0,0,183.5
100,2021-08-16T01:39:00,0.7,東,1.4,東,21.2,96.2,0,0,0,183.5
101,2021-08-16T01:40:00,0.8,東,1.4,東,21.2,96.2,0,0,0,183.5
102,2021-08-16T01:41:00,0.8,東,1.4,東,21.2,96.2,0,0,0,183.5
103,2021-08-16T01:42:00,0.9,東,1.4,東,21.1,96.2,0,0,0,183.5
104,2021-08-16T01:43:00,0.9,東,1.4,東,21.1,96.2,0,0,0,183.5
105,2021-08-16T01:44:00,1,東南東,1.4,東,21.1,96.3,0,0,0,183.5
106,2021-08-16T01:45:00,1,東南東,1.4,東,21.1,96.4,0,0,0,183.5
107,2021-08-16T01:46:00,1,東南東,1.4,東,21.3,96.5,0,0,0,183.5
108,2021-08-16T01:47:00,0.9,東南東,1.4,南南東,21.2,96.6,0,0,0,183.5
109,2021-08-16T01:48:00,0.9,東南東,1.4,南南東,21.1,96.2,0,0,0,183.5
110,2021-08-16T01:49:00,0.9,東南東,1.4,南南東,21,96.1,0,0,0,183.5
111,2021-08-16T01:50:00,0.9,東南東,1.4,南南東,21,96.2,0,0,0,183.5
112,2021-08-16T01:51:00,0.8,東南東,1.4,南南東,21,96.3,0,0,0,183.5
113,2021-08-16T01:52:00,0.8,東,1.4,南南東,20.9,96.2,0,0,0,183.5
114,2021-08-16T01:53:00,0.7,東,1.4,南南東,20.9,96.3,0,0,0,183.5
115,2021-08-16T01:54:00,0.7,東,1.4,南南東,20.9,96.3,0,0,0,183.5
116,2021-08-16T01:55:00,0.6,東北東,1.3,東北東,20.9,96.5,0,0,0,183.5
117,2021-08-16T01:56:00,0.7,東北東,1.3,東北東,20.9,96.5,0,0,0,183.5
118,2021-08-16T01:57:00,0.7,東北東,1.3,東北東,20.9,96.5,0,0,0,183.5
119,2021-08-16T01:58:00,0.6,東北東,1,東北東,21,96.5,0,0,0,183.5
120,2021-08-16T01:59:00,0.7,東北東,1,東北東,20.9,96.5,0,0,0,183.5
121,2021-08-16T02:00:00,0.6,東北東,1,東北東,20.9,96.6,0,0,0,183.5
122,2021-08-16T02:01:00,0.6,北東,1,東北東,20.9,96.6,0,0,0,183.5
123,2021-08-16T02:02:00,0.5,北東,1,東北東,21.2,96.9,0,0,0,183.5
124,2021-08-16T02:03:00,0.5,北東,1,東北東,21.3,97.1,0,0,0,183.5
125,2021-08-16T02:04:00,0.5,東北東,1,東北東,21.2,96.5,0,0,0,183.5
126,2021-08-16T02:05:00,0.5,東北東,1,東北東,21.1,96.5,0,0,0,183.5
127,2021-08-16T02:06:00,0.4,東北東,1,東北東,21.1,96.5,0,0,0,183.5
128,2021-08-16T02:07:00,0.3,東北東,0.8,東北東,21,96.4,0,0,0,183.5
129,2021-08-16T02:08:00,0.3,東,0.8,東北東,21,96.4,0,0,0,183.5
130,2021-08-16T02:09:00,0.2,静穏,0.7,東北東,20.9,96.4,0,0,0,183.5
131,2021-08-16T02:10:00,0.3,東北東,0.8,北東,20.9,96.4,0,0,0,183.5
132,2021-08-16T02:11:00,0.4,東北東,1.6,北東,20.9,96.5,0,0,0,183.5
133,2021-08-16T02:12:00,0.5,東北東,2,北東,20.9,96.4,0,0,0,183.5
134,2021-08-16T02:13:00,0.6,東北東,2,北東,20.9,96.5,0,0,0,183.5
135,2021-08-16T02:14:00,0.7,東北東,2,北東,20.9,96.6,0,0,0,183.5
136,2021-08-16T02:15:00,0.8,東北東,2,北東,21,96.7,0,0,0,183.5
137,2021-08-16T02:16:00,0.8,東北東,2,北東,21,96.7,0,0,0,183.5
138,2021-08-16T02:17:00,1,東北東,2,北東,20.9,96.6,0,0,0,183.5
139,2021-08-16T02:18:00,1.1,東北東,2,北東,20.9,96.6,0,0,0,183.5
140,2021-08-16T02:19:00,1.2,東北東,2,北東,20.9,96.6,0,0,0,183.5
141,2021-08-16T02:20:00,1.2,東北東,2,北東,20.9,96.6,0,0,0,183.5
142,2021-08-16T02:21:00,1.2,東北東,2,北東,20.9,96.6,0,0,0,183.5
143,2021-08-16T02:22:00,1.2,東,2,東,21,96.6,0,0,0,183.5
144,2021-08-16T02:23:00,1.2,東,2,東,20.9,96.6,0,0,0,183.5
145,2021-08-16T02:24:00,1.2,東,2,東,21,96.6,0,0,0,183.5
146,2021-08-16T02:25:00,1.2,東,2,東,21,96.6,0,0,0,183.5
147,2021-08-16T02:26:00,1.3,東,2,東,21,96.6,0,0,0,183.5
148,2021-08-16T02:27:00,1.3,東,2.1,東北東,20.9,96.5,0,0,0,183.5
149,2021-08-16T02:28:00,1.3,東,2.1,東北東,21,96.6,0,0,0,183.5
150,2021-08-16T02:29:00,1.3,東,2.1,東北東,21,96.6,0,0,0,183.5
151,2021-08-16T02:30:00,1.3,東,2.1,東北東,21,96.5,0,0,0,183.5
152,2021-08-16T02:31:00,1.3,東,2.1,東北東,20.9,96.5,0,0,0,183.5
153,2021-08-16T02:32:00,1.3,東,2.1,東北東,20.9,96.4,0,0,0,183.5
154,2021-08-16T02:33:00,1.3,東,2.1,東北東,21,96.5,0,0,0,183.5
155,2021-08-16T02:34:00,1.3,東,2.1,東北東,20.9,96.4,0,0,0,183.5
156,2021-08-16T02:35:00,1.3,東,2.1,東北東,20.8,96.4,0,0,0,183.5
157,2021-08-16T02:36:00,1.3,東,2.1,東北東,20.8,96.4,0,0,0,183.5
158,2021-08-16T02:37:00,1.3,東北東,2.1,東南東,20.8,96.4,0,0,0,183.5
159,2021-08-16T02:38:00,1.2,東北東,2,東北東,20.8,96.4,0,0,0,183.5
160,2021-08-16T02:39:00,1.1,東北東,2,東北東,20.7,96.4,0,0,0,183.5
161,2021-08-16T02:40:00,1.1,東北東,2,東北東,20.7,96.5,0,0,0,183.5
162,2021-08-16T02:41:00,1,東北東,2,東北東,20.7,96.5,0,0,0,183.5
163,2021-08-16T02:42:00,1,東北東,2,東北東,20.8,96.6,0,0,0,183.5
164,2021-08-16T02:43:00,0.9,東北東,2,東北東,20.8,96.6,0,0,0,183.5
165,2021-08-16T02:44:00,0.9,東北東,2,東北東,20.8,96.6,0,0,0,183.5
166,2021-08-16T02:45:00,0.8,東北東,2,東北東,20.8,96.6,0,0,0,183.5
167,2021-08-16T02:46:00,0.8,東北東,1.8,東北東,20.8,96.6,0,0,0,183.5
168,2021-08-16T02:47:00,0.8,東,1.5,東北東,20.8,96.7,0,0,0,183.5
169,2021-08-16T02:48:00,0.8,東,1.5,東北東,20.8,96.7,0,0,0,183.5
170,2021-08-16T02:49:00,0.8,東,1.5,東北東,20.8,96.6,0,0,0,183.5
171,2021-08-16T02:50:00,0.8,東,1.5,東北東,20.7,96.6,0,0,0,183.5
172,2021-08-16T02:51:00,0.8,東,1.5,東北東,20.7,96.6,0,0,0,183.5
173,2021-08-16T02:52:00,0.8,東,1.5,東北東,20.7,96.7,0,0,0,183.5
174,2021-08-16T02:53:00,0.8,東,1.5,東北東,20.7,96.7,0,0,0,183.5
175,2021-08-16T02:54:00,0.8,東,1.5,東北東,20.7,96.6,0,0,0,183.5
176,2021-08-16T02:55:00,0.8,東,1.2,東,20.7,96.6,0,0,0,183.5
177,2021-08-16T02:56:00,0.8,東北東,1.2,東,20.7,96.7,0,0,0,183.5
178,2021-08-16T02:57:00,0.7,東北東,1.1,東北東,20.7,96.7,0,0,0,183.5
179,2021-08-16T02:58:00,0.7,東,1.1,東北東,20.7,96.7,0,0,0,183.5
180,2021-08-16T02:59:00,0.8,東,1.6,東南東,20.7,96.7,0,0,0,183.5
181,2021-08-16T03:00:00,0.8,東,1.7,東南東,20.7,96.7,0,0,0,183.5
182,2021-08-16T03:01:00,0.8,東,1.7,東南東,20.7,96.7,0,0,0,183.5
183,2021-08-16T03:02:00,0.8,東,1.7,東南東,20.7,96.7,0,0,0,183.5
184,2021-08-16T03:03:00,0.8,東,1.7,東南東,20.7,96.7,0,0,0,183.5
185,2021-08-16T03:04:00,0.8,東,1.7,東南東,20.7,96.7,0,0,0,183.5
186,2021-08-16T03:05:00,0.8,東,1.7,東南東,20.7,96.8,0,0,0,183.5
187,2021-08-16T03:06:00,0.8,東,1.7,東南東,20.8,96.9,0,0,0,183.5
188,2021-08-16T03:07:00,0.8,東,1.7,東南東,20.8,96.7,0,0,0,183.5
189,2021-08-16T03:08:00,0.8,東,1.9,東南東,20.7,96.7,0,0,0,183.5
190,2021-08-16T03:09:00,0.9,東,2.4,東,20.7,96.7,0,0,0,183.5
191,2021-08-16T03:10:00,0.9,東,2.4,東,20.7,96.7,0,0,0,183.5
192,2021-08-16T03:11:00,1,東,2.4,東,20.7,96.7,0,0,0,183.5
193,2021-08-16T03:12:00,1.1,東,2.4,東,20.7,96.7,0,0,0,183.5
194,2021-08-16T03:13:00,1.2,東,2.4,東,20.7,96.7,0,0,0,183.5
195,2021-08-16T03:14:00,1.3,東,2.4,東,20.7,96.7,0,0,0,183.5
196,2021-08-16T03:15:00,1.4,東,2.4,東,20.7,96.7,0,0,0,183.5
197,2021-08-16T03:16:00,1.4,東,2.4,東,20.8,96.8,0,0,0,183.5
198,2021-08-16T03:17:00,1.4,東,2.4,東,20.8,96.8,0,0,0,183.5
199,2021-08-16T03:18:00,1.4,東,2.4,東,20.8,96.8,0,0,0,183.5
200,2021-08-16T03:19:00,1.3,東,2.1,東,20.8,96.7,0,0,0,183.5
201,2021-08-16T03:20:00,1.2,東,2.1,東,20.7,96.7,0,0,0,183.5
202,2021-08-16T03:21:00,1.2,東,2.1,東,20.7,96.6,0,0,0,183.5
203,2021-08-16T03:22:00,1.1,東,2.1,東,20.7,96.7,0,0,0,183.5
204,2021-08-16T03:23:00,1,東,2.1,東,20.6,96.6,0,0,0,183.5
205,2021-08-16T03:24:00,1,東北東,1.8,東北東,20.6,96.5,0,0,0,183.5
206,2021-08-16T03:25:00,1,東北東,1.8,東北東,20.6,96.6,0,0,0,183.5
207,2021-08-16T03:26:00,1,東北東,1.8,東北東,20.5,96.6,0,0,0,183.5
208,2021-08-16T03:27:00,1,東北東,2.4,東北東,20.6,96.7,0,0,0,183.5
209,2021-08-16T03:28:00,1.1,東北東,2.4,東北東,20.6,96.7,0,0,0,183.5
210,2021-08-16T03:29:00,1.1,東北東,2.4,東北東,20.6,96.8,0,0,0,183.5
211,2021-08-16T03:30:00,1.2,東北東,2.4,東北東,20.6,96.8,0,0,0,183.5
212,2021-08-16T03:31:00,1.2,東北東,2.4,東北東,20.6,96.8,0,0,0,183.5
213,2021-08-16T03:32:00,1.2,東北東,2.4,東北東,20.6,96.8,0,0,0,183.5
214,2021-08-16T03:33:00,1.3,東北東,2.4,東北東,20.6,96.8,0,0,0,183.5
215,2021-08-16T03:34:00,1.4,東北東,2.4,東北東,20.6,96.8,0,0,0,183.5
216,2021-08-16T03:35:00,1.4,東北東,2.4,東北東,20.6,96.9,0,0,0,183.5
217,2021-08-16T03:36:00,1.4,東北東,2.4,東北東,20.6,96.9,0,0,0,183.5
218,2021-08-16T03:37:00,1.3,東,2.3,東,20.7,96.9,0,0,0,183.5
219,2021-08-16T03:38:00,1.3,東,2.3,東,20.7,96.9,0,0,0,183.5
220,2021-08-16T03:39:00,1.2,東,2.3,東,20.7,96.8,0,0,0,183.5
221,2021-08-16T03:40:00,1.2,東,2.3,東,20.7,96.8,0,0,0,183.5
222,2021-08-16T03:41:00,1.2,東,2.3,東,20.7,96.8,0,0,0,183.5
223,2021-08-16T03:42:00,1.2,東,2.3,東,20.7,96.8,0,0,0,183.5
224,2021-08-16T03:43:00,1.2,東,2.3,東,20.7,96.8,0,0,0,183.5
225,2021-08-16T03:44:00,1.1,東,2.2,東南東,20.7,96.8,0,0,0,183.5
226,2021-08-16T03:45:00,1,東,1.8,東北東,20.7,96.9,0,0,0,183.5
227,2021-08-16T03:46:00,1,東,1.8,東北東,20.6,96.8,0,0,0,183.5
228,2021-08-16T03:47:00,1,東北東,1.8,東北東,20.6,96.7,0,0,0,183.5
229,2021-08-16T03:48:00,1,東北東,1.8,東北東,20.6,96.7,0,0,0,183.5
230,2021-08-16T03:49:00,0.9,東北東,1.8,東北東,20.6,96.7,0,0,0,183.5
231,2021-08-16T03:50:00,0.9,東北東,1.8,東北東,20.6,96.8,0,0,0,183.5
232,2021-08-16T03:51:00,0.9,東北東,1.6,東北東,20.6,96.8,0,0,0,183.5
233,2021-08-16T03:52:00,0.9,東北東,1.6,東北東,20.6,96.8,0,0,0,183.5
234,2021-08-16T03:53:00,0.9,東北東,1.5,東北東,20.6,96.8,0,0,0,183.5
235,2021-08-16T03:54:00,0.9,東北東,1.7,東,20.6,96.8,0,0,0,183.5
236,2021-08-16T03:55:00,0.9,東北東,1.7,東,20.7,97,0,0,0,183.5
237,2021-08-16T03:56:00,1,東,1.7,東,20.6,96.8,0,0,0,183.5
238,2021-08-16T03:57:00,1,東,1.7,東,20.6,96.8,0,0,0,183.5
239,2021-08-16T03:58:00,1,東,1.7,東,20.7,96.8,0,0,0,183.5
240,2021-08-16T03:59:00,1.1,東,1.8,東,20.7,96.8,0,0,0,183.5
241,2021-08-16T04:00:00,1.1,東,1.8,東,20.7,96.8,0,0,0,183.5
242,2021-08-16T04:01:00,1.1,東,1.8,東,20.6,96.8,0,0,0,183.5
243,2021-08-16T04:02:00,1.1,東南東,1.8,東,20.6,96.7,0,0,0,183.5
244,2021-08-16T04:03:00,1.1,東南東,1.8,東,20.6,96.8,0,0,0,183.5
245,2021-08-16T04:04:00,1.1,東南東,1.8,東,20.7,96.9,0,0,0,183.5
246,2021-08-16T04:05:00,1,東南東,1.8,東,20.6,96.8,0,0,0,183.5
247,2021-08-16T04:06:00,1,東南東,2,東,20.6,96.7,0,0,0,183.5
248,2021-08-16T04:07:00,1,東南東,2,東,20.6,96.7,0,0,0,183.5
249,2021-08-16T04:08:00,1,東,2,東,20.6,96.7,0,0,0,183.5
250,2021-08-16T04:09:00,1,東,2,東,20.6,96.7,0,0,0,183.5
251,2021-08-16T04:10:00,1,東,2,東,20.6,96.7,0,0,0,183.5
252,2021-08-16T04:11:00,1.1,東,2,東,20.5,96.7,0,0,0,183.5
253,2021-08-16T04:12:00,1.1,東,2,東,20.5,96.7,0,0,0,183.5
254,2021-08-16T04:13:00,1.1,東,2,東,20.5,96.7,0,0,0,183.5
255,2021-08-16T04:14:00,1.1,東,2,東,20.5,96.8,0,0,0,183.5
256,2021-08-16T04:15:00,1.1,東北東,2,東,20.5,96.8,0,0,0,183.5
257,2021-08-16T04:16:00,1.1,東北東,1.9,東,20.5,96.8,0,0,0,183.5
258,2021-08-16T04:17:00,1.1,東北東,1.7,東北東,20.5,96.8,0,0,0,183.5
259,2021-08-16T04:18:00,1.1,東北東,1.7,東北東,20.5,96.8,0,0,0,183.5
260,2021-08-16T04:19:00,1.1,東北東,1.7,東北東,20.4,96.8,0,0,0,183.5
261,2021-08-16T04:20:00,1.1,東北東,1.7,東北東,20.4,96.8,0,0,0,183.5
262,2021-08-16T04:21:00,1,東北東,1.6,東北東,20.4,96.8,0,0,0,183.5
263,2021-08-16T04:22:00,1,東北東,1.5,東北東,20.4,96.8,0,0,0,183.5
264,2021-08-16T04:23:00,1,東北東,1.5,東北東,20.4,96.8,0,0,0,183.5
265,2021-08-16T04:24:00,1,東北東,1.5,東北東,20.3,96.8,0,0,0,183.5
266,2021-08-16T04:25:00,1,東北東,1.5,東北東,20.3,96.8,0,0,0,183.5
267,2021-08-16T04:26:00,1,東北東,1.5,東北東,20.3,96.8,0,0,0,183.5
268,2021-08-16T04:27:00,1,東北東,1.5,東北東,20.3,96.9,0,0,0,183.5
269,2021-08-16T04:28:00,1,東北東,1.5,東北東,20.3,96.9,0,0,0,183.5
270,2021-08-16T04:29:00,1,東北東,1.5,東北東,20.3,96.9,0,0,0,183.5
271,2021-08-16T04:30:00,1,東北東,1.5,東北東,20.3,96.9,0,0,0,183.5
272,2021-08-16T04:31:00,1,東北東,1.5,東北東,20.3,96.9,0,0,0,183.5
273,2021-08-16T04:32:00,1,東北東,1.5,東北東,20.3,96.9,0,0,0,183.5
274,2021-08-16T04:33:00,1,東北東,1.5,東北東,20.3,96.9,0,0,0,183.5
275,2021-08-16T04:34:00,1,東北東,1.5,東北東,20.3,97,0,0,0,183.5
276,2021-08-16T04:35:00,1,東北東,1.5,東北東,20.3,97,0,0,0,183.5
277,2021-08-16T04:36:00,1,東北東,2,東北東,20.3,97,0,0,0,183.5
278,2021-08-16T04:37:00,1.1,東北東,2,東北東,20.3,97,0,0,0,183.5
279,2021-08-16T04:38:00,1.1,東北東,2,東北東,20.3,97,0,0,0,183.5
280,2021-08-16T04:39:00,1.2,東北東,2,東北東,20.3,97.1,0,0,0,183.5
281,2021-08-16T04:40:00,1.2,東北東,2.2,東南東,20.4,97.1,0,0,0,183.5
282,2021-08-16T04:41:00,1.2,東北東,2.2,東南東,20.4,97.1,0,0,0,183.5
283,2021-08-16T04:42:00,1.2,東,2.2,東南東,20.4,97.1,0,0,0,183.5
284,2021-08-16T04:43:00,1.2,東,2.2,東南東,20.4,97.1,0,0,0,183.5
285,2021-08-16T04:44:00,1.3,東,2.2,東南東,20.4,97.1,0,0,0,183.5
286,2021-08-16T04:45:00,1.3,東,2.2,東南東,20.4,97.1,0,0,0,183.5
287,2021-08-16T04:46:00,1.2,東,2.2,東南東,20.4,97.1,0,0,0,183.5
288,2021-08-16T04:47:00,1.2,東,2.2,東南東,20.4,97.1,0,0,0,183.5
289,2021-08-16T04:48:00,1.2,東,2.2,東南東,20.4,97.1,0,0,0,183.5
290,2021-08-16T04:49:00,1.1,東,2.2,東南東,20.4,97.1,0,0,0,183.5
291,2021-08-16T04:50:00,1.1,東,2.5,東北東,20.4,97.1,0,0,0,183.5
292,2021-08-16T04:51:00,1.2,東,2.5,東北東,20.4,97.1,0,0,0,183.5
293,2021-08-16T04:52:00,1.2,東,2.5,東北東,20.4,97.1,0,0,0,183.5
294,2021-08-16T04:53:00,1.3,東,2.6,東北東,20.4,97.1,0,0,0,183.5
295,2021-08-16T04:54:00,1.4,東,2.6,東北東,20.4,97.1,0,0,0,183.5
296,2021-08-16T04:55:00,1.4,東,2.6,東北東,20.5,97.1,0,0,0,183.5
297,2021-08-16T04:56:00,1.4,東,2.6,東北東,20.5,97.1,0,0,0,183.5
298,2021-08-16T04:57:00,1.4,東,2.6,東北東,20.5,97.1,0,0,0,183.5
299,2021-08-16T04:58:00,1.4,東,2.6,東北東,20.4,97.1,0,0,0,183.5
300,2021-08-16T04:59:00,1.4,東,2.6,東北東,20.4,97,0,0,0,183.5
301,2021-08-16T05:00:00,1.4,東,2.6,東北東,20.5,97.1,0,0,0,183.5
302,2021-08-16T05:01:00,1.3,東,2.6,東北東,20.4,97,0,0,0,183.5
303,2021-08-16T05:02:00,1.2,東,2.6,東北東,20.5,97,0,0,0,183.5
304,2021-08-16T05:03:00,1.1,東,2.2,東,20.9,97.4,0,0,0,183.5
305,2021-08-16T05:04:00,0.9,東,2.2,東,21.1,97.6,0,0,0,183.5
306,2021-08-16T05:05:00,0.8,東,2.1,東,20.7,97,0,0,0,183.5
307,2021-08-16T05:06:00,0.8,東,2.1,東,20.6,96.7,0,0,0,183.5
308,2021-08-16T05:07:00,0.7,東南東,2.1,東,20.5,96.7,0,0,0,183.5
309,2021-08-16T05:08:00,0.7,東,2.1,東,20.5,96.8,0,0,0,183.5
310,2021-08-16T05:09:00,0.7,東,2.1,東,20.5,96.7,0,0,0,183.5
311,2021-08-16T05:10:00,0.7,東,1.9,東,20.5,96.7,0,0,0,183.5
312,2021-08-16T05:11:00,0.8,東,1.9,東,20.4,96.8,0,0,0,183.5
313,2021-08-16T05:12:00,0.8,東,1.9,東,20.4,96.8,0,0,0,183.5
314,2021-08-16T05:13:00,0.8,東,1.9,東,20.4,96.8,0,0,0,183.5
315,2021-08-16T05:14:00,0.9,東,1.9,東,20.4,96.8,0,0,0,183.5
316,2021-08-16T05:15:00,0.9,東,1.9,東,20.3,96.8,0,0,0,183.5
317,2021-08-16T05:16:00,0.9,東,1.9,東,20.4,96.8,0,0,0,183.5
318,2021-08-16T05:17:00,0.9,東,1.9,東,20.4,96.9,0,0,0,183.5
319,2021-08-16T05:18:00,0.9,東,1.9,東,20.4,96.9,0,0,0,183.5
320,2021-08-16T05:19:00,0.9,東,1.9,東,20.4,96.9,0,0,0,183.5
321,2021-08-16T05:20:00,0.9,東,1.4,東南東,20.4,96.9,0,0,0,183.5
322,2021-08-16T05:21:00,0.9,東北東,1.3,東北東,20.3,96.9,0,0,0,183.5
323,2021-08-16T05:22:00,0.9,東北東,1.3,東北東,20.4,96.9,0,0,0,183.5
324,2021-08-16T05:23:00,0.9,東北東,1.3,東北東,20.3,96.9,0,0,0,183.5
325,2021-08-16T05:24:00,0.9,東北東,1.4,北東,20.3,96.9,0,0,0,183.5
326,2021-08-16T05:25:00,0.9,東北東,1.4,北東,20.3,96.9,0,0,0,183.5
327,2021-08-16T05:26:00,0.9,東北東,1.4,北東,20.3,96.9,0,0,0,183.5
328,2021-08-16T05:27:00,0.9,東北東,1.4,北東,20.4,97,0,0,0,183.5
329,2021-08-16T05:28:00,1,東北東,1.4,北東,20.3,97,0,0,0,183.5
330,2021-08-16T05:29:00,1,東北東,1.4,北東,20.4,97,0,0,0,183.5
331,2021-08-16T05:30:00,0.9,東北東,1.4,北東,20.4,97,0,0,0,183.5
332,2021-08-16T05:31:00,0.9,東北東,1.4,北東,20.4,97,0,0,0,183.5
333,2021-08-16T05:32:00,0.9,東,1.4,北東,20.4,97.1,0,0,0,183.5
334,2021-08-16T05:33:00,0.9,東,1.4,北東,20.5,97.1,0,0,0,183.5
335,2021-08-16T05:34:00,0.9,東,1.4,東北東,20.5,97.1,0,0,0,183.5
336,2021-08-16T05:35:00,0.9,東,1.4,東北東,20.5,97,0,0,0,183.5
337,2021-08-16T05:36:00,0.9,東,1.5,東,20.5,97,0,0,0,183.5
338,2021-08-16T05:37:00,0.9,東,1.7,東南東,20.5,97,0,0,0,183.5
339,2021-08-16T05:38:00,1,東,1.7,東南東,20.5,97,0,0,0,183.5
340,2021-08-16T05:39:00,1,東,1.8,東北東,20.5,97,0,0,0,183.5
341,2021-08-16T05:40:00,1.1,東,1.9,東,20.5,97,0,0,0,183.5
342,2021-08-16T05:41:00,1.1,東,1.9,東,20.5,96.9,0,0,0,183.5
343,2021-08-16T05:42:00,1.1,東,1.9,東,20.5,96.9,0,0,0,183.5
344,2021-08-16T05:43:00,1.2,東,1.9,東,20.5,96.9,0,0,0,183.5
345,2021-08-16T05:44:00,1.2,東,1.9,東,20.5,96.9,0,0,0,183.5
346,2021-08-16T05:45:00,1.2,東,1.9,東,20.5,96.9,0,0,0,183.5
347,2021-08-16T05:46:00,1.1,東,1.9,東,20.5,96.9,0,0,0,183.5
348,2021-08-16T05:47:00,1.1,東,1.9,東,20.5,96.9,0,0,0,183.5
349,2021-08-16T05:48:00,1.1,東,1.9,東,20.5,96.9,0,0,0,183.5
350,2021-08-16T05:49:00,1.1,東,1.9,東,20.5,96.9,0,0,0,183.5
351,2021-08-16T05:50:00,1,東,1.6,東北東,20.4,96.9,0,0,0,183.5
352,2021-08-16T05:51:00,1,東,1.6,東北東,20.4,96.9,0,0,0,183.5
353,2021-08-16T05:52:00,0.9,東北東,1.6,東北東,20.4,96.9,0,0,0,183.5
354,2021-08-16T05:53:00,0.9,東北東,1.6,東北東,20.4,96.9,0,0,0,183.5
355,2021-08-16T05:54:00,0.8,東北東,1.6,東北東,20.4,96.9,0,0,0,183.5
356,2021-08-16T05:55:00,0.8,東北東,1.6,東北東,20.5,97,0,0,0,183.5
357,2021-08-16T05:56:00,0.8,北東,1.6,東北東,20.5,97,0,0,0,183.5
358,2021-08-16T05:57:00,0.7,北東,1.6,東北東,20.4,96.9,0,0,0,183.5
359,2021-08-16T05:58:00,0.7,北東,1.6,東北東,20.5,97,0,0,0,183.5
360,2021-08-16T05:59:00,0.6,北東,1.2,北東,20.5,97,0,0,0,183.5
361,2021-08-16T06:00:00,0.6,北東,1.2,北東,20.5,97,0,0,0,183.5
362,2021-08-16T06:01:00,0.6,北東,1.2,北東,20.5,96.9,0,0,0,183.5
363,2021-08-16T06:02:00,0.5,東北東,1.1,北東,20.6,97,0,0,0,183.5
364,2021-08-16T06:03:00,0.5,東北東,1.1,北東,20.8,97.2,0,0,0,183.5
365,2021-08-16T06:04:00,0.5,東北東,0.9,東北東,20.7,97,0,0,0,183.5
366,2021-08-16T06:05:00,0.5,東北東,0.9,東北東,20.6,96.8,0,0,0,183.5
367,2021-08-16T06:06:00,0.5,東,1,東南東,20.6,96.8,0,0,0,183.5
368,2021-08-16T06:07:00,0.5,東,1,東南東,20.6,96.8,0,0,0,183.5
369,2021-08-16T06:08:00,0.5,東北東,1.3,東北東,20.6,96.8,0,0,0,183.5
370,2021-08-16T06:09:00,0.6,東,1.3,東北東,20.6,96.8,0,0,0,183.5
371,2021-08-16T06:10:00,0.6,東,1.3,東北東,20.6,96.8,0,0,0,183.5
372,2021-08-16T06:11:00,0.6,東,1.3,東北東,20.6,96.8,0,0,0,183.5
373,2021-08-16T06:12:00,0.7,東,1.5,東南東,20.6,96.8,0,0,0,183.5
374,2021-08-16T06:13:00,0.8,東,1.7,東,20.6,96.8,0,0,0,183.5
375,2021-08-16T06:14:00,0.9,東,1.7,東,20.6,96.8,0,0,0,183.5
376,2021-08-16T06:15:00,0.9,東,1.7,東,20.6,96.8,0,0,0,183.5
377,2021-08-16T06:16:00,1,東,1.7,東,20.6,96.8,0,0,0,183.5
378,2021-08-16T06:17:00,1,東南東,1.7,東,20.6,96.8,0,0,0,183.5
379,2021-08-16T06:18:00,1,東南東,1.7,東,20.7,96.9,0,0,0,183.5
380,2021-08-16T06:19:00,1,東南東,1.7,東,20.9,97.2,0,0,0,183.5
381,2021-08-16T06:20:00,1,東南東,1.7,東,20.8,96.8,0,0,0,183.5
382,2021-08-16T06:21:00,,"",,"",,,,,,
383,2021-08-16T06:22:00,1,東南東,1.7,東,20.7,96.7,0,0,0,183.5
384,2021-08-16T06:23:00,0.9,東南東,1.5,南東,20.7,96.6,0,0,0,183.5
385,2021-08-16T06:24:00,0.9,東南東,1.5,南東,20.8,96.7,0,0,0,183.5
386,2021-08-16T06:25:00,0.8,東南東,1.5,南東,20.8,96.8,0,0,0,183.5
387,2021-08-16T06:26:00,0.7,東南東,1.1,東,20.8,96.7,0,0,0,183.5
388,2021-08-16T06:27:00,0.7,東南東,1.1,東,20.8,96.6,0,0,0,183.5
389,2021-08-16T06:28:00,0.7,東南東,1.2,東,20.8,96.6,0,0,0,183.5
390,2021-08-16T06:29:00,0.7,東南東,1.2,東,20.8,96.6,0,0,0,183.5
391,2021-08-16T06:30:00,0.6,東南東,1.2,東,20.9,96.8,0,0,0,183.5
392,2021-08-16T06:31:00,0.6,東南東,1.2,東,20.9,96.7,0,0,0,183.5
393,2021-08-16T06:32:00,0.5,東南東,1.2,東,20.9,96.7,0,0,0,183.5
394,2021-08-16T06:33:00,0.5,東,1.2,東,21.2,96.9,0,0,0,183.5
395,2021-08-16T06:34:00,0.5,東,1.2,東,21.1,96.8,0,0,0,183.5
396,2021-08-16T06:35:00,0.5,東,1.2,東,20.9,96.3,0,0,0,183.5
397,2021-08-16T06:36:00,0.5,東,1.2,東,20.9,96.3,0,0,0,183.5
398,2021-08-16T06:37:00,0.5,東,1.2,東,20.9,96.3,0,0,0,183.5
399,2021-08-16T06:38:00,0.5,東,1,南南東,20.9,96.3,0,0,0,183.5
400,2021-08-16T06:39:00,0.5,東,0.9,東,20.9,96.4,0,0,0,183.5
401,2021-08-16T06:40:00,0.5,東,1,東北東,20.9,96.4,0,0,0,183.5
402,2021-08-16T06:41:00,0.5,東北東,1,東北東,20.9,96.4,0,0,0,183.5
403,2021-08-16T06:42:00,0.6,東北東,1,東北東,20.9,96.3,0,0,0,183.5
404,2021-08-16T06:43:00,0.6,東北東,1,東北東,20.9,96.2,0,0,0,183.5
405,2021-08-16T06:44:00,0.6,東北東,1.1,北東,20.9,96.2,0,0,0,183.5